Regional Weather Roundup
Issued by NWS

Home | Current Version | Previous Version | Graphics & Text | Print | Product List | Glossary On
Versions: 1 2 3 4 5 6 7 8 9 10 11 12 13 14 15 16 17 18 19 20 21 22 23 24 25 26 27 28 29 30 31 32 33 34 35 36 37 38 39 40 41 42 43 44 45 46 47 48 49 50
000
ASUS43 KLMK 230802
RWRKY
KENTUCKY REGIONAL WEATHER ROUNDUP
NATIONAL WEATHER SERVICE LOUISVILLE KY
400 AM EDT TUE AUG 23 2016

NOTE "FAIR" INDICATES FEW OR NO CLOUDS BELOW 12,000 FEET
WITH NO SIGNIFICANT WEATHER AND/OR OBSTRUCTIONS TO VISIBILITY.

KYZ001>023-026-027-061>063-070>075-230900-
WESTERN AND SOUTH CENTRAL KENTUCKY

CITY           SKY/WX    TMP DP  RH WIND       PRES   REMARKS
PADUCAH        PTCLDY    61  59  93 CALM      30.17S
HENDERSON      PTCLDY    61  57  88 CALM      30.19S
OWENSBORO      CLEAR     63  63 100 CALM      30.21S
HOPKINSVILLE   CLEAR     64  61  89 CALM      30.19F
BOWLING GREEN  FOG       61  60  97 CALM      30.22S VSB 1/2
GLASGOW        CLEAR     60  60 100 CALM      30.22S
$$

KYZ024-025-028>034-038-045-046-053-230900-
NORTH CENTRAL KENTUCKY

CITY           SKY/WX    TMP DP  RH WIND       PRES   REMARKS
LOUISVILLE/SDF CLEAR     65  61  87 SE3       30.23R
LOUISVILLE/LOU CLEAR     62  58  86 CALM      30.24R
FORT KNOX      CLEAR     59  59 100 CALM      30.22R FOG
$$

KYZ035>037-039>044-047>052-055>060-089>105-230900-
NORTHEAST KENTUCKY

CITY           SKY/WX    TMP DP  RH WIND       PRES   REMARKS
LEXINGTON      CLEAR     62  56  80 SE6       30.25S
COVINGTON      CLEAR     62  59  90 CALM      30.25S
FRANKFORT      CLEAR     60  57  89 CALM      30.24R
$$

KYZ054-064>069-076>088-106>120-230900-
SOUTHEAST KENTUCKY

CITY           SKY/WX    TMP DP  RH WIND       PRES   REMARKS
JACKSON        CLEAR     62  57  83 CALM      30.27S
LONDON         CLEAR     58  56  93 CALM      30.25S
SOMERSET       CLEAR     57  57 100 CALM      30.26R
MIDDLESBORO    FOG       59  59 100 CALM      30.28S VSB 1/2
MONTICELLO     FOG      N/A N/A N/A W9        30.26S VSB 1/2
$$





USA.gov is the U.S. government's official web portal to all federal, state and local government web resources and services.